Simultaneous Nadir Overpasses (SNOs) Predictions

Prediction of SNOs between METOP-B and TERRA Satellite Orbit:

Table of predicted SNOs for the next 14.0 days since TLE Epoch: 1/24/2025
Index Date (METOP-B) Time (METOP-B) Lat,Lon (METOP-B) SZA (METOP-B ) Date (TERRA) Time (TERRA) Lat,Lon (TERRA) SZA (TERRA ) Distance(km) Time Diff (sec)
1 01/25/2025 05:34:54 -78.88, -75.43 82.25 01/25/2025 05:35:57 -78.89, -75.29 82.23 3.18 63
2 01/25/2025 06:25:22 79.33, 94.94 98.26 01/25/2025 06:25:05 79.32, 94.88 98.25 1.28 17
3 01/27/2025 19:14:40 78.95, -99.96 97.18 01/27/2025 19:15:40 78.96, -99.92 97.19 0.83 60
4 01/27/2025 20:05:11 -79.34, 70.07 82.39 01/27/2025 20:04:52 -79.34, 69.98 82.40 2.13 19
5 01/30/2025 08:54:30 -78.93,-125.12 83.55 01/30/2025 08:55:27 -78.93,-125.03 83.54 2.15 57
6 01/30/2025 09:44:58 79.36, 45.25 96.94 01/30/2025 09:44:35 79.35, 45.12 96.93 2.81 23
7 02/01/2025 22:34:13 79.04,-149.32 95.86 02/01/2025 22:35:06 79.03,-149.45 95.85 2.95 53
8 02/01/2025 23:24:48 -79.29, 19.74 83.88 02/01/2025 23:24:21 -79.29, 19.76 83.88 0.58 27
9 02/04/2025 12:14:05 -78.92,-175.09 85.04 02/04/2025 12:14:53 -78.93,-174.99 85.03 2.37 48
10 02/04/2025 13:04:33 79.36, -4.76 95.44 02/04/2025 13:04:01 79.35, -4.88 95.43 2.73 32
11 02/07/2025 01:53:51 78.94, 160.05 94.19 02/07/2025 01:54:33 78.94, 160.11 94.19 1.25 42



Historial Predications of SNOs between METOP-B and TERRA
